sat.trackr.live / text

‹ back to catalog

STARLINK-33718

NORAD 63476 · 2025-070S

PAYLOAD ACTIVE UNKNOWN

§ Identity

Operator
Country
US
Launch date
2025-04-06
Launch site
AFETR
Launch vehicle
Mass (kg)
RCS (m²)

Purposes: comms

External: N2YO · Heavens-Above · Gunter

§ Orbital elements

Epoch: 2026-09-20T15:09:06.279552Z

Period
94.27 min
Inclination
42.9953°
Eccentricity
0.0000401
Mean motion
15.27584803 rev/d
Perigee alt
482.8 km
Apogee alt
483.3 km
Semi-major
6,861.2 km
B*
4.4316e-4
RAAN
238.5694°
Arg perigee
308.5745°
Mean anomaly
51.5071°
Rev number
8,279

§ Raw data

STARLINK-337181 63476U 25070S   26263.63132268  .00011954  00000+0  44316-3 0  99902 63476  42.9953 238.5694 0000401 308.5745  51.5071 15.27584803 82792

JSON: /api/v1/satellites/63476 · /tle

For live sub-satellite position, see the globe view (requires WebGL).

§ Visibility from observer

Set your observer location to see the next 7 days of passes ≥ 10°. The values pass through the URL so the page stays shareable.

No JS? Fill the form by hand. The geolocation button needs JavaScript.